Weather History for Dover AFB, DE

Change the Weather History Date:

Sunday, January 1, 2012

  Actual Average Record
Temperature  
Mean Temperature 46 °F -  
Max Temperature 58 °F 44 °F 68 °F (1966)
Min Temperature 33 °F 30 °F 12 °F (1963)
Degree Days  
Heating Degree Days 20    
Moisture  
Dew Point 41 °F    
Average Humidity 75    
Maximum Humidity 100    
Minimum Humidity 56    
Precipitation  
Precipitation 0.00 in - - ()
Sea Level Pressure  
Sea Level Pressure 29.92 in    
Wind  
Wind Speed 8 mph (South)    
Max Wind Speed 16 mph    
Max Gust Speed 25 mph    
Visibility 10 miles    
Events Rain    
Averages and records for this station are not official NWS values.
T = Trace of Precipitation, MM = Missing Value Source: NWS Daily Summary

Daily Weather History Graph

Daily Weather History Graph

Search for Another Location

Airport:

Trip Planner

Search our weather history database for the weather conditions in past years. The results will help you decide how hot, cold, wet, or windy it might be!

Date:

Astronomy

Jan. 01, 2012 Rise Set
Actual Time 7:21 AM EST 4:49 PM EST
Civil Twilight 6:51 AM EST 5:19 PM EST
Nautical Twilight 6:17 AM EST 5:53 PM EST
Astronomical Twilight 5:45 AM EST 6:25 PM EST
Moon 11:35 AM EST (1/1) 12:15 AM EST (1/1)
Length of Visible Light 10h 28m
Length of Day
9h 28m
First Quarter, 54% of the Moon is Illuminated
Jan 1
First Quarter
Jan 9
Full
Jan 16
Last Quarter
Jan 23
New
Jan 30
First Quarter

Hourly Weather History & Observations

Time (EST) Temp. Windchill Dew Point Humidity Pressure Visibility Wind Dir Wind Speed Gust Speed Precip Events Conditions
12:55 AM 43.3 °F 39.9 °F 36.9 °F 78% 30.09 in 10.0 mi West 5.8 mph - N/A   Clear
1:55 AM 40.1 °F 35.3 °F 36.0 °F 85% 30.12 in 10.0 mi WSW 6.9 mph - N/A   Clear
2:55 AM 39.9 °F 35.8 °F 36.3 °F 87% 30.13 in 10.0 mi WSW 5.8 mph - N/A   Clear
3:55 AM 38.1 °F - 35.6 °F 91% 30.12 in 10.0 mi Calm Calm - N/A   Clear
4:55 AM 36.5 °F - 35.4 °F 96% 30.11 in 10.0 mi Calm Calm - N/A   Clear
5:55 AM 36.5 °F 33.9 °F 35.4 °F 96% 30.12 in 10.0 mi South 3.5 mph - N/A   Clear
6:55 AM 34.2 °F 31.2 °F 33.1 °F 96% 30.13 in 10.0 mi South 3.5 mph - N/A   Clear
7:04 AM 33.8 °F 29.6 °F 33.8 °F 100% 30.13 in 8.0 mi SSW 4.6 mph - N/A   Clear
7:05 AM 33.8 °F 29.6 °F 33.8 °F 100% 30.13 in 7.0 mi SSW 4.6 mph - N/A   Clear
7:55 AM 35.2 °F - 34.5 °F 97% 30.14 in 7.0 mi Calm Calm - N/A   Clear
8:55 AM 40.8 °F 37.8 °F 38.5 °F 91% 30.13 in 10.0 mi SSE 4.6 mph - N/A   Clear
9:55 AM 46.9 °F - 40.3 °F 78% 30.11 in 10.0 mi SSE 6.9 mph - N/A   Clear
10:55 AM 50.5 °F - 39.6 °F 66% 30.09 in 10.0 mi SSE 13.8 mph - N/A   Clear
11:55 AM 53.2 °F - 39.7 °F 60% 30.02 in 10.0 mi SSE 13.8 mph - N/A   Clear
12:55 PM 55.8 °F - 40.3 °F 56% 29.96 in 10.0 mi South 15.0 mph 25.3 mph N/A   Clear
1:55 PM 56.1 °F - 41.2 °F 57% 29.90 in 10.0 mi South 16.1 mph - N/A   Clear
2:55 PM 58.1 °F - 42.6 °F 56% 29.86 in 10.0 mi South 16.1 mph - N/A   Clear
3:55 PM 56.7 °F - 43.0 °F 60% 29.84 in 10.0 mi SSE 12.7 mph - N/A   Clear
4:29 PM 55.4 °F - 42.8 °F 63% 29.82 in 10.0 mi SSE 11.5 mph - N/A   Light Drizzle
4:38 PM 55.4 °F - 42.8 °F 63% 29.80 in 10.0 mi SE 11.5 mph - N/A   Overcast
4:55 PM 54.9 °F - 42.4 °F 63% 29.80 in 10.0 mi SSE 15.0 mph - 0.00 in   Overcast
5:55 PM 54.7 °F - 43.2 °F 65% 29.81 in 10.0 mi South 11.5 mph - N/A   Overcast
6:01 PM 55.4 °F - 42.8 °F 63% 29.82 in 10.0 mi South 11.5 mph - N/A   Light Drizzle
6:20 PM 53.6 °F - 44.6 °F 72% 29.81 in 10.0 mi SSW 9.2 mph - N/A   Overcast
6:29 PM 53.6 °F - 44.6 °F 72% 29.81 in 10.0 mi South 10.4 mph - N/A   Light Drizzle
6:41 PM 53.6 °F - 44.6 °F 72% 29.79 in 10.0 mi South 9.2 mph - N/A   Overcast
6:52 PM 53.6 °F - 44.6 °F 72% 29.78 in 10.0 mi South 9.2 mph - N/A   Light Drizzle
6:55 PM 53.1 °F - 44.6 °F 73% 29.78 in 10.0 mi South 9.2 mph - 0.00 in   Light Drizzle
7:09 PM 51.8 °F - 44.6 °F 76% 29.77 in 10.0 mi South 10.4 mph - N/A   Overcast
7:20 PM 51.8 °F - 44.6 °F 76% 29.77 in 10.0 mi South 9.2 mph - N/A Rain Light Rain
7:29 PM 51.8 °F - 44.6 °F 76% 29.76 in 10.0 mi South 10.4 mph - N/A   Overcast
7:55 PM 54.0 °F - 44.1 °F 69% 29.75 in 10.0 mi South 12.7 mph - 0.00 in   Overcast
8:55 PM 54.5 °F - 43.3 °F 66% 29.75 in 10.0 mi South 13.8 mph - N/A   Mostly Cloudy
9:55 PM 55.8 °F - 42.3 °F 60% 29.75 in 10.0 mi SW 12.7 mph - N/A   Mostly Cloudy
10:55 PM 52.9 °F - 43.3 °F 70% 29.76 in 10.0 mi West 11.5 mph - N/A   Mostly Cloudy
11:55 PM 51.3 °F - 38.7 °F 62% 29.78 in 10.0 mi WNW 13.8 mph 20.7 mph N/A   Clear